Time,TemperatureF,DewpointF,PressureIn,WindDirection,WindDirectionDegrees,WindSpeedMPH,WindSpeedGustMPH,Humidity,HourlyPrecipIn,Conditions,Clouds,dailyrainin,SolarRadiationWatts/m^2,SoftwareType,DateUTC
2013-06-14 00:01:00,62.3,53.9,29.90,NW,321,3.0,10.0,74,0.00,,,0.14,0,Wunderground v.1.15,2013-06-14 04:01:00,
2013-06-14 00:02:00,62.3,53.9,29.90,NNW,342,2.0,10.0,74,0.00,,,0.14,0,Wunderground v.1.15,2013-06-14 04:02:00,
2013-06-14 00:03:00,62.3,53.9,29.90,NNW,334,3.0,10.0,74,0.00,,,0.14,0,Wunderground v.1.15,2013-06-14 04:03:00,
2013-06-14 00:04:00,62.3,53.9,29.90,NNW,333,3.0,10.0,74,0.00,,,0.14,0,Wunderground v.1.15,2013-06-14 04:04:00,
2013-06-14 00:07:00,62.2,53.8,29.90,NNW,337,2.0,10.0,74,0.00,,,0.14,0,Wunderground v.1.15,2013-06-14 04:07:00,
2013-06-14 00:13:00,62.1,54.0,29.90,WNW,295,0.0,-999.0,75,-99.99,,,0.14,,weatherlink.com 1.10,2013-06-14 04:13:00,
2013-06-14 00:19:00,61.9,54.2,29.90,NW,311,1.0,10.0,76,0.00,,,0.14,0,Wunderground v.1.15,2013-06-14 04:19:00,
2013-06-14 00:24:00,61.7,54.1,29.90,WNW,298,1.0,10.0,76,0.00,,,0.14,0,Wunderground v.1.15,2013-06-14 04:24:00,
2013-06-14 00:30:00,61.6,54.0,29.90,NNW,345,2.0,10.0,76,0.00,,,0.14,0,Wunderground v.1.15,2013-06-14 04:30:00,
2013-06-14 00:36:00,61.4,54.1,29.90,NW,308,1.0,10.0,77,0.00,,,0.14,0,Wunderground v.1.15,2013-06-14 04:36:00,
2013-06-14 00:42:00,61.3,54.0,29.90,NW,305,1.0,10.0,77,0.00,,,0.00,0,Wunderground v.1.15,2013-06-14 04:42:00,
2013-06-14 00:47:00,61.2,53.9,29.90,NW,324,1.0,10.0,77,0.00,,,0.00,0,Wunderground v.1.15,2013-06-14 04:47:00,
2013-06-14 00:53:00,61.1,54.2,29.90,NW,310,1.0,10.0,78,0.00,,,0.00,0,Wunderground v.1.15,2013-06-14 04:53:00,
2013-06-14 00:59:00,61.0,54.4,29.90,NNW,327,1.0,10.0,79,0.00,,,0.00,0,Wunderground v.1.15,2013-06-14 04:59:00,
2013-06-14 01:04:00,60.8,54.2,29.90,NW,311,1.0,7.0,79,0.00,,,0.00,0,Wunderground v.1.15,2013-06-14 05:04:00,
2013-06-14 01:10:00,60.6,54.4,29.90,NW,305,1.0,1.0,80,0.00,,,0.00,0,Wunderground v.1.15,2013-06-14 05:10:00,
2013-06-14 01:15:00,60.5,54.3,29.90,NNW,336,2.0,7.0,80,0.00,,,0.00,0,Wunderground v.1.15,2013-06-14 05:15:00,
2013-06-14 01:21:00,60.4,54.2,29.90,NNW,333,1.0,7.0,80,0.00,,,0.00,0,Wunderground v.1.15,2013-06-14 05:21:00,
2013-06-14 01:27:00,60.2,54.3,29.90,NW,320,0.0,7.0,81,0.00,,,0.00,0,Wunderground v.1.15,2013-06-14 05:27:00,
2013-06-14 01:33:00,60.1,54.2,29.91,NW,317,1.0,7.0,81,0.00,,,0.00,0,Wunderground v.1.15,2013-06-14 05:33:00,
2013-06-14 01:39:00,60.0,54.2,29.91,WNW,300,1.0,7.0,81,0.00,,,0.00,0,Wunderground v.1.15,2013-06-14 05:39:00,
2013-06-14 01:45:00,60.0,54.2,29.90,NW,305,1.0,7.0,81,0.00,,,0.00,0,Wunderground v.1.15,2013-06-14 05:45:00,
2013-06-14 01:51:00,59.8,54.3,29.90,WNW,301,1.0,7.0,82,0.00,,,0.00,0,Wunderground v.1.15,2013-06-14 05:51:00,
2013-06-14 01:57:00,59.7,54.5,29.91,WNW,303,1.0,7.0,83,0.00,,,0.00,0,Wunderground v.1.15,2013-06-14 05:57:00,
2013-06-14 02:02:00,59.7,54.5,29.90,WNW,294,2.0,5.0,83,0.00,,,0.00,0,Wunderground v.1.15,2013-06-14 06:02:00,
2013-06-14 02:08:00,59.7,54.5,29.91,WNW,298,2.0,5.0,83,0.00,,,0.00,0,Wunderground v.1.15,2013-06-14 06:08:00,
2013-06-14 02:14:00,59.6,54.4,29.91,NNW,333,1.0,5.0,83,0.00,,,0.00,0,Wunderground v.1.15,2013-06-14 06:14:00,
2013-06-14 02:19:00,59.5,54.7,29.90,NNW,340,1.0,5.0,84,0.00,,,0.00,0,Wunderground v.1.15,2013-06-14 06:19:00,
2013-06-14 02:25:00,59.4,54.6,29.90,NW,325,1.0,5.0,84,0.00,,,0.00,0,Wunderground v.1.15,2013-06-14 06:25:00,
2013-06-14 02:31:00,59.3,54.8,29.90,NW,323,1.0,3.0,85,0.00,,,0.00,0,Wunderground v.1.15,2013-06-14 06:31:00,
2013-06-14 02:37:00,59.2,54.7,29.91,NW,319,2.0,5.0,85,0.00,,,0.00,0,Wunderground v.1.15,2013-06-14 06:37:00,
2013-06-14 02:43:00,59.2,55.0,29.91,North,351,0.0,-999.0,85,-99.99,,,0.00,,weatherlink.com 1.10,2013-06-14 06:43:00,
2013-06-14 02:49:00,59.2,55.0,29.91,NNW,329,1.0,5.0,86,0.00,,,0.00,0,Wunderground v.1.15,2013-06-14 06:49:00,
2013-06-14 02:55:00,59.3,55.1,29.90,North,355,0.0,5.0,86,0.00,,,0.00,0,Wunderground v.1.15,2013-06-14 06:55:00,
2013-06-14 03:00:00,59.3,55.4,29.91,North,355,0.0,0.0,87,0.00,,,0.00,0,Wunderground v.1.15,2013-06-14 07:00:00,
2013-06-14 03:06:00,59.3,55.1,29.90,NNW,346,0.0,7.0,86,0.00,,,0.00,0,Wunderground v.1.15,2013-06-14 07:06:00,
2013-06-14 03:12:00,59.3,55.4,29.90,NW,321,1.0,7.0,87,0.00,,,0.00,0,Wunderground v.1.15,2013-06-14 07:12:00,
2013-06-14 03:18:00,59.3,55.7,29.90,NNW,336,0.0,7.0,88,0.00,,,0.00,0,Wunderground v.1.15,2013-06-14 07:18:00,
2013-06-14 03:23:00,59.3,55.4,29.89,North,355,0.0,7.0,87,0.00,,,0.00,0,Wunderground v.1.15,2013-06-14 07:23:00,
2013-06-14 03:29:00,59.2,55.6,29.90,NNW,346,0.0,7.0,88,0.00,,,0.00,0,Wunderground v.1.15,2013-06-14 07:29:00,
2013-06-14 03:34:00,59.2,55.6,29.90,NNW,346,0.0,7.0,88,0.00,,,0.00,0,Wunderground v.1.15,2013-06-14 07:34:00,
2013-06-14 03:40:00,59.1,55.2,29.90,NNW,346,0.0,7.0,87,0.00,,,0.00,0,Wunderground v.1.15,2013-06-14 07:40:00,
2013-06-14 03:46:00,59.1,55.5,29.90,NNW,340,1.0,7.0,88,0.00,,,0.00,0,Wunderground v.1.15,2013-06-14 07:46:00,
2013-06-14 03:52:00,59.0,55.4,29.90,NNW,344,1.0,7.0,88,0.00,,,0.00,0,Wunderground v.1.15,2013-06-14 07:52:00,
2013-06-14 03:58:00,59.1,56.0,29.91,North,355,0.0,-999.0,89,-99.99,,,0.00,,weatherlink.com 1.10,2013-06-14 07:58:00,
2013-06-14 04:03:00,59.1,55.9,29.90,NNW,347,1.0,5.0,89,0.00,,,0.00,0,Wunderground v.1.15,2013-06-14 08:03:00,
2013-06-14 04:09:00,59.1,55.9,29.91,NNW,348,1.0,5.0,89,0.00,,,0.00,0,Wunderground v.1.15,2013-06-14 08:09:00,
2013-06-14 04:15:00,59.1,55.9,29.91,NW,321,0.0,5.0,89,0.00,,,0.00,0,Wunderground v.1.15,2013-06-14 08:15:00,
2013-06-14 04:21:00,59.1,55.9,29.92,NNW,343,0.0,5.0,89,0.00,,,0.00,0,Wunderground v.1.15,2013-06-14 08:21:00,
2013-06-14 04:26:00,59.1,55.9,29.92,NNW,344,0.0,5.0,89,0.00,,,0.00,0,Wunderground v.1.15,2013-06-14 08:26:00,
2013-06-14 04:32:00,59.1,55.9,29.92,NNW,342,0.0,5.0,89,0.00,,,0.00,0,Wunderground v.1.15,2013-06-14 08:32:00,
2013-06-14 04:38:00,59.1,55.9,29.92,North,351,0.0,5.0,89,0.00,,,0.00,0,Wunderground v.1.15,2013-06-14 08:38:00,
2013-06-14 04:44:00,59.1,55.9,29.92,North,5,0.0,5.0,89,0.00,,,0.00,0,Wunderground v.1.15,2013-06-14 08:44:00,
2013-06-14 04:50:00,59.1,55.9,29.92,North,360,1.0,1.0,89,0.00,,,0.00,0,Wunderground v.1.15,2013-06-14 08:50:00,
2013-06-14 04:56:00,59.1,55.9,29.92,NNW,343,0.0,5.0,89,0.00,,,0.00,0,Wunderground v.1.15,2013-06-14 08:56:00,
2013-06-14 05:02:00,59.1,55.9,29.92,North,350,0.0,5.0,89,0.00,,,0.00,0,Wunderground v.1.15,2013-06-14 09:02:00,
2013-06-14 05:07:00,59.0,55.8,29.92,NNW,341,1.0,5.0,89,0.00,,,0.00,0,Wunderground v.1.15,2013-06-14 09:07:00,
2013-06-14 05:13:00,59.0,56.0,29.92,North,349,0.0,-999.0,90,-99.99,,,0.00,,weatherlink.com 1.10,2013-06-14 09:13:00,
2013-06-14 05:19:00,58.9,55.7,29.92,WNW,290,0.0,5.0,89,0.00,,,0.00,0,Wunderground v.1.15,2013-06-14 09:19:00,
2013-06-14 05:25:00,58.8,55.6,29.93,NNW,338,0.0,5.0,89,0.00,,,0.00,0,Wunderground v.1.15,2013-06-14 09:25:00,
2013-06-14 05:30:00,58.8,55.9,29.93,NNW,333,0.0,5.0,90,0.00,,,0.00,0,Wunderground v.1.15,2013-06-14 09:30:00,
2013-06-14 05:36:00,58.8,56.2,29.93,NNW,348,0.0,5.0,91,0.00,,,0.00,0,Wunderground v.1.15,2013-06-14 09:36:00,
2013-06-14 05:42:00,58.8,55.9,29.93,North,360,0.0,5.0,90,0.00,,,0.00,0,Wunderground v.1.15,2013-06-14 09:42:00,
2013-06-14 05:48:00,58.7,55.8,29.93,North,355,1.0,5.0,90,0.00,,,0.00,0,Wunderground v.1.15,2013-06-14 09:48:00,
2013-06-14 05:54:00,58.7,55.8,29.93,North,351,1.0,5.0,90,0.00,,,0.00,0,Wunderground v.1.15,2013-06-14 09:54:00,
2013-06-14 06:00:00,58.7,55.8,29.93,North,351,0.0,0.0,90,0.00,,,0.00,0,Wunderground v.1.15,2013-06-14 10:00:00,
2013-06-14 06:06:00,58.6,55.7,29.94,North,351,0.0,3.0,90,0.00,,,0.00,5,Wunderground v.1.15,2013-06-14 10:06:00,
2013-06-14 06:12:00,58.5,55.6,29.94,North,350,0.0,3.0,90,0.00,,,0.00,7,Wunderground v.1.15,2013-06-14 10:12:00,
2013-06-14 06:18:00,58.4,55.5,29.94,North,351,0.0,3.0,90,0.00,,,0.00,9,Wunderground v.1.15,2013-06-14 10:18:00,
2013-06-14 06:24:00,58.4,55.5,29.94,North,351,0.0,3.0,90,0.00,,,0.00,14,Wunderground v.1.15,2013-06-14 10:24:00,
2013-06-14 06:30:00,58.4,55.5,29.94,North,350,0.0,3.0,90,0.00,,,0.00,19,Wunderground v.1.15,2013-06-14 10:30:00,
2013-06-14 06:35:00,58.5,55.6,29.95,North,351,0.0,3.0,90,0.00,,,0.00,28,Wunderground v.1.15,2013-06-14 10:35:00,
2013-06-14 06:41:00,58.6,56.0,29.95,North,351,0.0,3.0,91,0.00,,,0.00,39,Wunderground v.1.15,2013-06-14 10:41:00,
2013-06-14 06:47:00,58.9,56.0,29.96,North,351,0.0,3.0,90,0.00,,,0.00,47,Wunderground v.1.15,2013-06-14 10:47:00,
2013-06-14 06:53:00,59.1,56.2,29.96,North,350,0.0,3.0,90,0.00,,,0.00,60,Wunderground v.1.15,2013-06-14 10:53:00,
2013-06-14 06:58:00,59.4,57.0,29.96,North,350,0.0,-999.0,90,-99.99,,,0.00,,weatherlink.com 1.10,2013-06-14 10:58:00,
2013-06-14 07:04:00,59.7,56.8,29.96,North,351,0.0,2.0,90,0.00,,,0.00,84,Wunderground v.1.15,2013-06-14 11:04:00,
2013-06-14 07:10:00,59.8,56.6,29.97,North,355,0.0,2.0,89,0.00,,,0.00,102,Wunderground v.1.15,2013-06-14 11:10:00,
2013-06-14 07:15:00,59.9,56.6,29.97,North,5,0.0,2.0,89,0.00,,,0.00,120,Wunderground v.1.15,2013-06-14 11:15:00,
2013-06-14 07:21:00,60.2,56.6,29.98,North,355,0.0,2.0,88,0.00,,,0.00,139,Wunderground v.1.15,2013-06-14 11:21:00,
2013-06-14 07:27:00,60.5,56.9,29.98,North,360,0.0,2.0,88,0.00,,,0.00,155,Wunderground v.1.15,2013-06-14 11:27:00,
2013-06-14 07:33:00,60.7,56.8,29.98,North,355,1.0,3.0,87,0.00,,,0.00,172,Wunderground v.1.15,2013-06-14 11:33:00,
2013-06-14 07:39:00,60.8,56.9,29.98,NNW,346,2.0,3.0,87,0.00,,,0.00,190,Wunderground v.1.15,2013-06-14 11:39:00,
2013-06-14 07:45:00,61.1,56.9,29.98,North,350,2.0,3.0,86,0.00,,,0.00,207,Wunderground v.1.15,2013-06-14 11:45:00,
2013-06-14 07:51:00,61.2,57.0,29.99,North,5,2.0,2.0,86,0.00,,,0.00,225,Wunderground v.1.15,2013-06-14 11:51:00,
2013-06-14 07:56:00,61.5,57.3,29.99,NE,35,1.0,2.0,86,0.00,,,0.00,241,Wunderground v.1.15,2013-06-14 11:56:00,
2013-06-14 08:02:00,62.0,57.8,30.00,NNE,14,1.0,5.0,86,0.00,,,0.00,258,Wunderground v.1.15,2013-06-14 12:02:00,
2013-06-14 08:08:00,62.2,57.0,30.00,NNE,32,2.0,5.0,83,0.00,,,0.00,278,Wunderground v.1.15,2013-06-14 12:08:00,
2013-06-14 08:13:00,62.4,57.0,30.00,NNE,14,5.0,-999.0,83,-99.99,,,0.00,,weatherlink.com 1.10,2013-06-14 12:13:00,
2013-06-14 08:19:00,62.5,56.9,30.00,NE,40,4.0,7.0,82,0.00,,,0.00,313,Wunderground v.1.15,2013-06-14 12:19:00,
2013-06-14 08:25:00,62.6,57.0,30.00,NE,36,5.0,6.0,82,0.00,,,0.00,332,Wunderground v.1.15,2013-06-14 12:25:00,
2013-06-14 08:30:00,62.9,57.0,29.99,North,11,4.0,9.0,81,0.00,,,0.00,348,Wunderground v.1.15,2013-06-14 12:30:00,
2013-06-14 08:38:00,63.2,57.3,30.00,ENE,59,5.0,9.0,81,0.00,,,0.00,373,Wunderground v.1.15,2013-06-14 12:38:00,
2013-06-14 08:44:00,63.4,57.1,30.00,NE,53,4.0,6.0,80,0.00,,,0.00,392,Wunderground v.1.15,2013-06-14 12:44:00,
2013-06-14 08:50:00,63.8,57.9,30.00,NE,36,4.0,4.0,81,0.00,,,0.00,411,Wunderground v.1.15,2013-06-14 12:50:00,
2013-06-14 08:55:00,64.0,57.4,30.00,ENE,58,4.0,10.0,79,0.00,,,0.00,429,Wunderground v.1.15,2013-06-14 12:55:00,
2013-06-14 09:00:00,64.1,57.5,30.00,NE,35,5.0,6.0,79,0.00,,,0.00,448,Wunderground v.1.15,2013-06-14 13:00:00,
2013-06-14 09:06:00,64.2,57.5,30.00,NNE,30,5.0,11.0,79,0.00,,,0.00,464,Wunderground v.1.15,2013-06-14 13:06:00,
2013-06-14 09:11:00,64.4,57.7,30.01,NE,41,5.0,11.0,79,0.00,,,0.00,480,Wunderground v.1.15,2013-06-14 13:11:00,
2013-06-14 09:17:00,64.5,57.1,30.01,NE,47,5.0,11.0,77,0.00,,,0.00,497,Wunderground v.1.15,2013-06-14 13:17:00,
2013-06-14 09:22:00,64.8,58.1,30.01,ENE,61,5.0,11.0,79,0.00,,,0.00,512,Wunderground v.1.15,2013-06-14 13:22:00,
2013-06-14 09:28:00,65.2,58.0,30.01,ENE,64,0.0,-999.0,77,-99.99,,,0.00,,weatherlink.com 1.10,2013-06-14 13:28:00,
2013-06-14 09:34:00,65.7,57.9,30.01,ENE,69,2.0,11.0,76,0.00,,,0.00,548,Wunderground v.1.15,2013-06-14 13:34:00,
2013-06-14 09:40:00,66.0,58.2,30.01,ENE,76,3.0,11.0,76,0.00,,,0.00,568,Wunderground v.1.15,2013-06-14 13:40:00,
2013-06-14 09:45:00,66.3,58.1,30.02,ENE,75,3.0,11.0,75,0.00,,,0.00,582,Wunderground v.1.15,2013-06-14 13:45:00,
2013-06-14 09:51:00,66.5,58.0,30.02,North,350,3.0,11.0,74,0.00,,,0.00,596,Wunderground v.1.15,2013-06-14 13:51:00,
2013-06-14 09:57:00,66.7,57.4,30.02,NNW,344,2.0,11.0,72,0.00,,,0.00,617,Wunderground v.1.15,2013-06-14 13:57:00,
2013-06-14 10:02:00,66.8,57.5,30.02,NE,35,3.0,9.0,72,0.00,,,0.00,631,Wunderground v.1.15,2013-06-14 14:02:00,
2013-06-14 10:08:00,67.1,57.4,30.03,NE,36,3.0,9.0,71,0.00,,,0.00,647,Wunderground v.1.15,2013-06-14 14:08:00,
2013-06-14 10:13:00,67.3,58.0,30.03,NNE,33,3.0,-999.0,72,-99.99,,,0.00,,weatherlink.com 1.10,2013-06-14 14:13:00,
2013-06-14 10:18:00,67.5,57.8,30.03,North,5,2.0,9.0,71,0.00,,,0.00,671,Wunderground v.1.15,2013-06-14 14:18:00,
2013-06-14 10:24:00,67.7,58.3,30.03,North,360,2.0,9.0,72,0.00,,,0.00,687,Wunderground v.1.15,2013-06-14 14:24:00,
2013-06-14 10:30:00,68.0,58.2,30.02,NW,325,2.0,9.0,71,0.00,,,0.00,705,Wunderground v.1.15,2013-06-14 14:30:00,
2013-06-14 10:36:00,68.3,58.1,30.03,NNE,18,2.0,9.0,70,0.00,,,0.00,715,Wunderground v.1.15,2013-06-14 14:36:00,
2013-06-14 10:42:00,68.7,58.1,30.02,NNE,29,2.0,9.0,69,0.00,,,0.00,737,Wunderground v.1.15,2013-06-14 14:42:00,
2013-06-14 10:48:00,68.6,58.4,30.03,NNE,15,4.0,9.0,70,0.00,,,0.00,758,Wunderground v.1.15,2013-06-14 14:48:00,
2013-06-14 10:53:00,68.7,58.1,30.03,ENE,68,4.0,9.0,69,0.00,,,0.00,770,Wunderground v.1.15,2013-06-14 14:53:00,
2013-06-14 10:59:00,68.7,57.7,30.03,NNE,19,5.0,9.0,68,0.00,,,0.00,775,Wunderground v.1.15,2013-06-14 14:59:00,
2013-06-14 11:04:00,68.9,59.1,30.03,NE,41,4.0,8.0,71,0.00,,,0.00,805,Wunderground v.1.15,2013-06-14 15:04:00,
2013-06-14 11:10:00,69.0,58.0,30.03,ENE,59,5.0,8.0,68,0.00,,,0.00,814,Wunderground v.1.15,2013-06-14 15:10:00,
2013-06-14 11:16:00,69.5,59.3,30.03,NE,56,5.0,8.0,70,0.00,,,0.00,853,Wunderground v.1.15,2013-06-14 15:16:00,
2013-06-14 11:21:00,69.2,57.8,30.03,ENE,65,6.0,8.0,67,0.00,,,0.00,856,Wunderground v.1.15,2013-06-14 15:21:00,
2013-06-14 11:27:00,69.2,58.2,30.03,NNW,346,4.0,8.0,68,0.00,,,0.00,879,Wunderground v.1.15,2013-06-14 15:27:00,
2013-06-14 11:33:00,69.2,57.8,30.03,North,360,3.0,8.0,67,0.00,,,0.00,905,Wunderground v.1.15,2013-06-14 15:33:00,
2013-06-14 11:39:00,69.7,57.8,30.03,ENE,59,5.0,8.0,66,0.00,,,0.00,958,Wunderground v.1.15,2013-06-14 15:39:00,
2013-06-14 11:44:00,69.9,57.6,30.03,North,5,3.0,8.0,65,0.00,,,0.00,1004,Wunderground v.1.15,2013-06-14 15:44:00,
2013-06-14 11:50:00,69.9,57.6,30.03,NNW,331,3.0,8.0,65,0.00,,,0.00,1051,Wunderground v.1.15,2013-06-14 15:50:00,
2013-06-14 11:55:00,70.0,57.3,30.04,ENE,59,5.0,8.0,64,0.00,,,0.00,986,Wunderground v.1.15,2013-06-14 15:55:00,
2013-06-14 12:00:00,70.1,57.4,30.04,ENE,71,5.0,5.0,64,0.00,,,0.00,1072,Wunderground v.1.15,2013-06-14 16:00:00,
2013-06-14 12:06:00,70.5,57.7,30.04,NNW,330,4.0,12.0,64,0.00,,,0.00,241,Wunderground v.1.15,2013-06-14 16:06:00,
2013-06-14 12:12:00,70.4,56.8,30.04,NW,315,3.0,12.0,62,0.00,,,0.00,248,Wunderground v.1.15,2013-06-14 16:12:00,
2013-06-14 12:18:00,70.8,57.1,30.04,NNW,338,2.0,12.0,62,0.00,,,0.00,1113,Wunderground v.1.15,2013-06-14 16:18:00,
2013-06-14 12:24:00,70.8,56.7,30.03,NW,308,2.0,12.0,61,0.00,,,0.00,1083,Wunderground v.1.15,2013-06-14 16:24:00,
2013-06-14 12:29:00,70.8,57.1,30.04,NNW,334,4.0,12.0,62,0.00,,,0.00,272,Wunderground v.1.15,2013-06-14 16:29:00,
2013-06-14 12:35:00,70.8,56.2,30.04,North,5,3.0,12.0,60,0.00,,,0.00,1169,Wunderground v.1.15,2013-06-14 16:35:00,
2013-06-14 12:41:00,70.8,56.2,30.04,NNE,26,2.0,12.0,60,0.00,,,0.00,1125,Wunderground v.1.15,2013-06-14 16:41:00,
2013-06-14 12:46:00,71.2,56.1,30.04,NE,40,2.0,12.0,59,0.00,,,0.00,248,Wunderground v.1.15,2013-06-14 16:46:00,
2013-06-14 12:52:00,70.9,54.9,30.03,NNE,17,3.0,12.0,57,0.00,,,0.00,1053,Wunderground v.1.15,2013-06-14 16:52:00,
2013-06-14 12:57:00,71.3,58.1,30.03,ENE,76,2.0,12.0,63,0.00,,,0.00,1063,Wunderground v.1.15,2013-06-14 16:57:00,
2013-06-14 13:03:00,71.8,56.2,30.02,ENE,63,2.0,12.0,58,0.00,,,0.00,1034,Wunderground v.1.15,2013-06-14 17:03:00,
2013-06-14 13:09:00,71.9,56.8,30.02,NE,48,4.0,12.0,59,0.00,,,0.00,1113,Wunderground v.1.15,2013-06-14 17:09:00,
2013-06-14 13:15:00,71.4,57.7,30.02,NE,46,5.0,12.0,62,0.00,,,0.00,1004,Wunderground v.1.15,2013-06-14 17:15:00,
2013-06-14 13:21:00,71.3,56.2,30.02,NNE,18,4.0,12.0,59,0.00,,,0.00,1021,Wunderground v.1.15,2013-06-14 17:21:00,
2013-06-14 13:27:00,71.5,56.9,30.01,NNE,32,4.0,12.0,60,0.00,,,0.00,1014,Wunderground v.1.15,2013-06-14 17:27:00,
2013-06-14 13:33:00,71.7,56.6,30.01,ENE,57,4.0,12.0,59,0.00,,,0.00,1018,Wunderground v.1.15,2013-06-14 17:33:00,
2013-06-14 13:38:00,71.8,57.2,30.01,NNE,30,3.0,12.0,60,0.00,,,0.00,930,Wunderground v.1.15,2013-06-14 17:38:00,
2013-06-14 13:44:00,72.3,56.7,30.01,ENE,74,2.0,12.0,58,0.00,,,0.00,1032,Wunderground v.1.15,2013-06-14 17:44:00,
2013-06-14 13:50:00,72.2,56.1,30.01,ENE,64,1.0,1.0,57,0.00,,,0.00,1032,Wunderground v.1.15,2013-06-14 17:50:00,
2013-06-14 13:55:00,72.2,56.6,30.01,NE,50,0.0,12.0,58,0.00,,,0.00,1053,Wunderground v.1.15,2013-06-14 17:55:00,
2013-06-14 14:00:00,72.5,56.9,30.01,NE,44,3.0,3.0,58,0.00,,,0.00,1035,Wunderground v.1.15,2013-06-14 18:00:00,
2013-06-14 14:06:00,72.7,58.0,30.01,NE,38,3.0,12.0,60,0.00,,,0.00,675,Wunderground v.1.15,2013-06-14 18:06:00,
2013-06-14 14:11:00,72.7,56.1,30.01,NE,40,2.0,12.0,56,0.00,,,0.00,1107,Wunderground v.1.15,2013-06-14 18:11:00,
2013-06-14 14:16:00,72.6,56.0,30.00,NE,51,2.0,12.0,56,0.00,,,0.00,301,Wunderground v.1.15,2013-06-14 18:16:00,
2013-06-14 14:22:00,72.7,55.1,30.00,NE,38,3.0,12.0,54,0.00,,,0.00,1053,Wunderground v.1.15,2013-06-14 18:22:00,
2013-06-14 14:28:00,73.0,57.0,30.00,East,92,2.0,-999.0,58,-99.99,,,0.00,,weatherlink.com 1.10,2013-06-14 18:28:00,
2013-06-14 14:34:00,73.4,58.2,30.00,East,87,1.0,12.0,59,0.00,,,0.00,1034,Wunderground v.1.15,2013-06-14 18:34:00,
2013-06-14 14:40:00,73.5,57.8,30.00,ENE,71,1.0,12.0,58,0.00,,,0.00,933,Wunderground v.1.15,2013-06-14 18:40:00,
2013-06-14 14:46:00,73.2,57.1,30.00,ENE,69,3.0,12.0,57,0.00,,,0.00,1016,Wunderground v.1.15,2013-06-14 18:46:00,
2013-06-14 14:52:00,73.4,57.2,30.00,East,95,2.0,12.0,57,0.00,,,0.00,928,Wunderground v.1.15,2013-06-14 18:52:00,
2013-06-14 14:58:00,73.7,57.0,30.00,East,79,0.0,-999.0,57,-99.99,,,0.00,,weatherlink.com 1.10,2013-06-14 18:58:00,
2013-06-14 15:03:00,73.6,56.9,30.00,NE,55,1.0,9.0,56,0.00,,,0.00,984,Wunderground v.1.15,2013-06-14 19:03:00,
2013-06-14 15:09:00,73.8,56.1,30.00,NE,53,1.0,9.0,54,0.00,,,0.00,824,Wunderground v.1.15,2013-06-14 19:09:00,
2013-06-14 15:14:00,73.8,57.0,30.00,ENE,75,0.0,-999.0,56,-99.99,,,0.00,,weatherlink.com 1.10,2013-06-14 19:14:00,
2013-06-14 15:19:00,73.8,56.6,30.00,NE,35,2.0,9.0,55,0.00,,,0.00,281,Wunderground v.1.15,2013-06-14 19:19:00,
2013-06-14 15:25:00,73.7,56.0,30.00,NE,42,2.0,9.0,54,0.00,,,0.00,793,Wunderground v.1.15,2013-06-14 19:25:00,
2013-06-14 15:31:00,74.0,57.3,30.00,NE,46,1.0,9.0,56,0.00,,,0.00,998,Wunderground v.1.15,2013-06-14 19:31:00,
2013-06-14 15:36:00,74.5,56.8,30.00,ENE,65,1.0,9.0,54,0.00,,,0.00,986,Wunderground v.1.15,2013-06-14 19:36:00,
2013-06-14 15:42:00,74.7,56.4,30.00,NNE,24,2.0,9.0,53,0.00,,,0.00,390,Wunderground v.1.15,2013-06-14 19:42:00,
2013-06-14 15:48:00,74.3,58.1,30.00,NE,38,3.0,9.0,57,0.00,,,0.00,1042,Wunderground v.1.15,2013-06-14 19:48:00,
2013-06-14 15:54:00,74.9,56.1,30.01,North,360,1.0,9.0,52,0.00,,,0.00,981,Wunderground v.1.15,2013-06-14 19:54:00,
2013-06-14 16:00:00,74.9,56.1,30.00,North,355,1.0,1.0,52,0.00,,,0.00,439,Wunderground v.1.15,2013-06-14 20:00:00,
2013-06-14 16:06:00,74.9,56.6,30.01,ENE,69,1.0,9.0,53,0.00,,,0.00,932,Wunderground v.1.15,2013-06-14 20:06:00,
2013-06-14 16:11:00,74.7,56.4,30.00,East,87,2.0,9.0,53,0.00,,,0.00,227,Wunderground v.1.15,2013-06-14 20:11:00,
2013-06-14 16:16:00,74.8,56.5,30.00,ESE,113,1.0,9.0,53,0.00,,,0.00,192,Wunderground v.1.15,2013-06-14 20:16:00,
2013-06-14 16:21:00,74.9,55.6,30.00,SE,128,0.0,9.0,51,0.00,,,0.00,207,Wunderground v.1.15,2013-06-14 20:21:00,
2013-06-14 16:27:00,76.0,57.1,30.00,SE,137,0.0,9.0,52,0.00,,,0.00,923,Wunderground v.1.15,2013-06-14 20:27:00,
2013-06-14 16:32:00,76.9,56.3,30.00,East,87,0.0,9.0,49,0.00,,,0.00,905,Wunderground v.1.15,2013-06-14 20:32:00,
2013-06-14 16:38:00,76.1,55.5,30.00,ENE,78,1.0,9.0,49,0.00,,,0.00,417,Wunderground v.1.15,2013-06-14 20:38:00,
2013-06-14 16:44:00,75.8,55.3,30.00,NW,317,1.0,9.0,49,0.00,,,0.00,851,Wunderground v.1.15,2013-06-14 20:44:00,
2013-06-14 16:50:00,75.4,54.9,30.00,NE,55,2.0,2.0,49,0.00,,,0.00,179,Wunderground v.1.15,2013-06-14 20:50:00,
2013-06-14 16:56:00,75.9,54.8,30.00,WNW,286,1.0,9.0,48,0.00,,,0.00,812,Wunderground v.1.15,2013-06-14 20:56:00,
2013-06-14 17:01:00,76.2,55.1,30.00,NNE,14,1.0,7.0,48,0.00,,,0.00,784,Wunderground v.1.15,2013-06-14 21:01:00,
2013-06-14 17:07:00,76.2,55.6,30.00,ENE,63,1.0,7.0,49,0.00,,,0.00,209,Wunderground v.1.15,2013-06-14 21:07:00,
2013-06-14 17:13:00,75.7,56.0,29.99,ENE,69,3.0,-999.0,50,-99.99,,,0.00,,weatherlink.com 1.10,2013-06-14 21:13:00,
2013-06-14 17:18:00,75.4,55.5,29.99,East,79,2.0,7.0,50,0.00,,,0.00,367,Wunderground v.1.15,2013-06-14 21:18:00,
2013-06-14 17:24:00,75.8,56.4,29.99,East,85,1.0,7.0,51,0.00,,,0.00,643,Wunderground v.1.15,2013-06-14 21:24:00,
2013-06-14 17:29:00,75.7,55.7,29.99,East,92,0.0,7.0,50,0.00,,,0.00,162,Wunderground v.1.15,2013-06-14 21:29:00,
2013-06-14 17:35:00,75.4,55.5,29.99,NE,40,0.0,7.0,50,0.00,,,0.00,123,Wunderground v.1.15,2013-06-14 21:35:00,
2013-06-14 17:40:00,75.4,54.9,29.99,NE,40,0.0,7.0,49,0.00,,,0.00,626,Wunderground v.1.15,2013-06-14 21:40:00,
2013-06-14 17:45:00,75.7,55.7,29.99,NE,46,0.0,7.0,50,0.00,,,0.00,295,Wunderground v.1.15,2013-06-14 21:45:00,
2013-06-14 17:51:00,76.3,56.3,29.99,SE,129,0.0,7.0,50,0.00,,,0.00,659,Wunderground v.1.15,2013-06-14 21:51:00,
2013-06-14 17:57:00,77.3,54.9,29.99,ESE,108,0.0,7.0,46,0.00,,,0.00,666,Wunderground v.1.15,2013-06-14 21:57:00,
2013-06-14 18:02:00,77.9,54.8,29.99,ESE,103,0.0,5.0,45,0.00,,,0.00,615,Wunderground v.1.15,2013-06-14 22:02:00,
2013-06-14 18:08:00,77.6,56.9,29.99,East,80,1.0,6.0,49,0.00,,,0.00,575,Wunderground v.1.15,2013-06-14 22:08:00,
2013-06-14 18:13:00,76.7,56.0,29.99,ENE,65,6.0,-999.0,49,-99.99,,,0.00,,weatherlink.com 1.10,2013-06-14 22:13:00,
2013-06-14 18:18:00,76.1,55.5,29.99,ENE,78,4.0,7.0,49,0.00,,,0.00,561,Wunderground v.1.15,2013-06-14 22:18:00,
2013-06-14 18:24:00,76.4,54.7,29.98,East,81,1.0,5.0,47,0.00,,,0.00,499,Wunderground v.1.15,2013-06-14 22:24:00,
2013-06-14 18:30:00,76.4,55.3,29.99,East,84,0.0,5.0,48,0.00,,,0.00,476,Wunderground v.1.15,2013-06-14 22:30:00,
2013-06-14 18:36:00,76.6,54.9,29.98,ESE,123,0.0,5.0,47,0.00,,,0.00,360,Wunderground v.1.15,2013-06-14 22:36:00,
2013-06-14 18:42:00,76.8,56.2,29.98,ESE,117,0.0,5.0,49,0.00,,,0.00,450,Wunderground v.1.15,2013-06-14 22:42:00,
2013-06-14 18:48:00,76.4,55.8,29.98,ESE,117,0.0,5.0,49,0.00,,,0.00,434,Wunderground v.1.15,2013-06-14 22:48:00,
2013-06-14 18:54:00,76.4,55.8,29.98,ENE,72,0.0,5.0,49,0.00,,,0.00,394,Wunderground v.1.15,2013-06-14 22:54:00,
2013-06-14 19:00:00,76.1,54.4,29.98,ENE,72,0.0,0.0,47,0.00,,,0.00,359,Wunderground v.1.15,2013-06-14 23:00:00,
2013-06-14 19:06:00,76.4,55.8,29.98,ENE,73,0.0,8.0,49,0.00,,,0.00,338,Wunderground v.1.15,2013-06-14 23:06:00,
2013-06-14 19:11:00,76.5,56.5,29.98,ENE,72,0.0,8.0,50,0.00,,,0.00,260,Wunderground v.1.15,2013-06-14 23:11:00,
2013-06-14 19:17:00,76.4,55.3,29.98,ENE,71,0.0,8.0,48,0.00,,,0.00,295,Wunderground v.1.15,2013-06-14 23:17:00,
2013-06-14 19:23:00,76.7,54.4,29.98,ENE,60,0.0,8.0,46,0.00,,,0.00,221,Wunderground v.1.15,2013-06-14 23:23:00,
2013-06-14 19:29:00,76.7,55.0,29.98,NE,48,0.0,8.0,47,0.00,,,0.00,65,Wunderground v.1.15,2013-06-14 23:29:00,
2013-06-14 19:35:00,75.7,56.8,29.98,NE,48,2.0,8.0,52,0.00,,,0.00,63,Wunderground v.1.15,2013-06-14 23:35:00,
2013-06-14 19:41:00,75.2,57.4,29.98,NE,48,2.0,8.0,54,0.00,,,0.00,60,Wunderground v.1.15,2013-06-14 23:41:00,
2013-06-14 19:47:00,75.2,57.9,29.98,NE,48,0.0,8.0,55,0.00,,,0.00,183,Wunderground v.1.15,2013-06-14 23:47:00,
2013-06-14 19:53:00,75.2,55.8,29.97,NE,48,0.0,8.0,51,0.00,,,0.00,88,Wunderground v.1.15,2013-06-14 23:53:00,
2013-06-14 19:58:00,75.1,57.0,29.98,NE,48,0.0,-999.0,54,-99.99,,,0.00,,weatherlink.com 1.10,2013-06-14 23:58:00,
2013-06-14 20:04:00,75.2,55.8,29.98,NE,48,0.0,5.0,51,0.00,,,0.00,83,Wunderground v.1.15,2013-06-15 00:04:00,
2013-06-14 20:09:00,75.3,56.5,29.98,NE,48,0.0,5.0,52,0.00,,,0.00,120,Wunderground v.1.15,2013-06-15 00:09:00,
2013-06-14 20:14:00,75.2,58.4,29.98,NE,48,0.0,5.0,56,0.00,,,0.00,105,Wunderground v.1.15,2013-06-15 00:14:00,
2013-06-14 20:20:00,75.1,60.7,29.98,NE,48,0.0,5.0,61,0.00,,,0.00,91,Wunderground v.1.15,2013-06-15 00:20:00,
2013-06-14 20:26:00,74.9,58.1,29.98,NE,48,0.0,5.0,56,0.00,,,0.00,76,Wunderground v.1.15,2013-06-15 00:26:00,
2013-06-14 20:32:00,74.6,60.3,29.98,NE,48,0.0,5.0,61,0.00,,,0.00,46,Wunderground v.1.15,2013-06-15 00:32:00,
2013-06-14 20:38:00,73.7,59.4,29.98,NE,48,0.0,5.0,61,0.00,,,0.00,25,Wunderground v.1.15,2013-06-15 00:38:00,
2013-06-14 20:44:00,73.0,58.0,29.98,NE,48,0.0,-999.0,60,-99.99,,,0.00,,weatherlink.com 1.10,2013-06-15 00:44:00,
2013-06-14 20:49:00,72.4,58.6,29.98,NE,48,0.0,5.0,62,0.00,,,0.00,19,Wunderground v.1.15,2013-06-15 00:49:00,
2013-06-14 20:54:00,72.0,58.3,29.98,NE,48,0.0,5.0,62,0.00,,,0.00,16,Wunderground v.1.15,2013-06-15 00:54:00,
2013-06-14 20:59:00,71.7,58.4,29.98,NE,48,0.0,5.0,63,0.00,,,0.00,12,Wunderground v.1.15,2013-06-15 00:59:00,
2013-06-14 21:05:00,71.5,59.5,29.98,NE,48,0.0,0.0,66,0.00,,,0.00,9,Wunderground v.1.15,2013-06-15 01:05:00,
2013-06-14 21:11:00,71.2,57.5,29.99,NE,48,0.0,0.0,62,0.00,,,0.00,0,Wunderground v.1.15,2013-06-15 01:11:00,
2013-06-14 21:17:00,71.0,58.2,29.99,NE,48,0.0,0.0,64,0.00,,,0.00,0,Wunderground v.1.15,2013-06-15 01:17:00,
2013-06-14 21:22:00,70.8,58.4,29.99,NE,48,0.0,1.0,65,0.00,,,0.00,0,Wunderground v.1.15,2013-06-15 01:22:00,
2013-06-14 21:28:00,70.6,56.0,29.99,NE,48,0.0,-999.0,61,-99.99,,,0.00,,weatherlink.com 1.10,2013-06-15 01:28:00,
2013-06-14 21:33:00,70.4,57.2,29.99,NE,48,0.0,0.0,63,0.00,,,0.00,0,Wunderground v.1.15,2013-06-15 01:33:00,
2013-06-14 21:39:00,70.2,59.1,29.99,NE,48,0.0,0.0,68,0.00,,,0.00,0,Wunderground v.1.15,2013-06-15 01:39:00,
2013-06-14 21:44:00,69.9,59.0,29.99,NE,48,0.0,-999.0,68,-99.99,,,0.00,,weatherlink.com 1.10,2013-06-15 01:44:00,
2013-06-14 21:49:00,69.5,58.9,29.99,NE,48,0.0,0.0,69,0.00,,,0.00,0,Wunderground v.1.15,2013-06-15 01:49:00,
2013-06-14 21:55:00,69.1,58.5,29.99,NE,48,0.0,0.0,69,0.00,,,0.00,0,Wunderground v.1.15,2013-06-15 01:55:00,
2013-06-14 22:00:00,68.7,58.9,29.99,NE,48,0.0,0.0,71,0.00,,,0.00,0,Wunderground v.1.15,2013-06-15 02:00:00,
2013-06-14 22:06:00,68.3,57.7,29.99,NE,48,0.0,2.0,69,0.00,,,0.00,0,Wunderground v.1.15,2013-06-15 02:06:00,
2013-06-14 22:13:00,68.1,58.0,30.00,NE,48,0.0,-999.0,70,-99.99,,,0.00,,weatherlink.com 1.10,2013-06-15 02:13:00,
2013-06-14 22:18:00,68.0,58.2,30.00,NE,48,0.0,2.0,71,0.00,,,0.00,0,Wunderground v.1.15,2013-06-15 02:18:00,
2013-06-14 22:24:00,67.8,59.6,29.99,NE,48,0.0,2.0,75,0.00,,,0.00,0,Wunderground v.1.15,2013-06-15 02:24:00,
2013-06-14 22:29:00,67.6,60.1,30.00,NE,48,0.0,2.0,77,0.00,,,0.00,0,Wunderground v.1.15,2013-06-15 02:29:00,
2013-06-14 22:35:00,67.4,59.2,30.00,NE,48,0.0,2.0,75,0.00,,,0.00,0,Wunderground v.1.15,2013-06-15 02:35:00,
2013-06-14 22:41:00,67.2,58.6,30.00,NE,48,0.0,2.0,74,0.00,,,0.00,0,Wunderground v.1.15,2013-06-15 02:41:00,
2013-06-14 22:47:00,66.8,58.2,29.99,NE,48,0.0,2.0,74,0.00,,,0.00,0,Wunderground v.1.15,2013-06-15 02:47:00,
2013-06-14 22:52:00,66.3,57.0,30.00,NE,48,0.0,2.0,72,0.00,,,0.00,0,Wunderground v.1.15,2013-06-15 02:52:00,
2013-06-14 22:58:00,66.0,58.0,30.00,NE,48,0.0,-999.0,75,-99.99,,,0.00,,weatherlink.com 1.10,2013-06-15 02:58:00,
2013-06-14 23:04:00,65.7,58.7,30.00,NE,48,0.0,0.0,78,0.00,,,0.00,0,Wunderground v.1.15,2013-06-15 03:04:00,
2013-06-14 23:10:00,65.4,58.4,30.00,NE,48,0.0,0.0,78,0.00,,,0.00,0,Wunderground v.1.15,2013-06-15 03:10:00,
2013-06-14 23:15:00,65.1,58.1,30.00,NE,48,0.0,0.0,78,0.00,,,0.00,0,Wunderground v.1.15,2013-06-15 03:15:00,
2013-06-14 23:20:00,64.9,57.2,30.00,NE,48,0.0,0.0,76,0.00,,,0.00,0,Wunderground v.1.15,2013-06-15 03:20:00,
2013-06-14 23:26:00,65.2,57.4,30.00,NE,48,1.0,2.0,76,0.00,,,0.00,0,Wunderground v.1.15,2013-06-15 03:26:00,
2013-06-14 23:32:00,65.4,57.6,30.00,NE,48,1.0,1.0,76,0.00,,,0.00,0,Wunderground v.1.15,2013-06-15 03:32:00,
2013-06-14 23:38:00,65.5,58.5,30.00,NE,48,0.0,1.0,78,0.00,,,0.00,0,Wunderground v.1.15,2013-06-15 03:38:00,
2013-06-14 23:44:00,65.4,58.0,29.99,NE,48,0.0,0.0,77,0.00,,,0.00,0,Wunderground v.1.15,2013-06-15 03:44:00,
2013-06-14 23:49:00,65.3,58.3,29.99,NE,48,0.0,0.0,78,0.00,,,0.00,0,Wunderground v.1.15,2013-06-15 03:49:00,
2013-06-14 23:54:00,65.2,58.2,29.99,NE,48,0.0,0.0,78,0.00,,,0.00,0,Wunderground v.1.15,2013-06-15 03:54:00,